Location: ?????????
(53.2086°N, 54.0693°E)
Time: 17:33:22
(UTC+00:00)

NOSS 5 (C) - Pass Details

Date: 08 December 2019
Orbit: 376 x 1736 km, 63.3° (Epoch: 25 January)

Event Time Altitude Azimuth Distance (km) Brightness Sun altitude
Rises 14:02:28 0° 312° (NW) 2,269 8.4 -16.1°
Reaches altitude 10° 14:04:21 10° 313° (NW) 1,453 7.4 -16.4°
Maximum altitude 14:07:27 87° 39° (NE) 451 4.3 -16.8°
Enters shadow 14:09:41 22° 132° (SE) 1,112 6.1 -17.2°
